Regional Weather Roundup
Issued by NWS

Home | Current Version | Previous Version | Graphics & Text | Print | Product List | Glossary On
Versions: 1 2 3 4 5 6 7 8 9 10 11 12 13 14 15 16 17 18 19 20 21 22 23 24 25 26 27 28 29 30 31 32 33 34 35 36 37 38 39 40 41 42 43 44 45 46 47 48 49 50
000
ASUS43 KOAX 302110
RWRNE

WEATHER ROUNDUP FOR NEBRASKA
NATIONAL WEATHER SERVICE OMAHA NE
300 PM CST FRI JAN 30 2015

NOTES: SATELLITE DATA IS BEING USED TO AUGMENT CLOUD COVER ABOVE
       12000 FEET.
       "FAIR" INDICATES FEW OR NO CLOUDS BELOW 12,000 FEET WITH NO
       SIGNIFICANT WEATHER AND/OR OBSTRUCTIONS TO VISIBILITY.

  * THESE STATIONS DO NOT REPORT WEATHER SUCH AS RAIN...SNOW OR FOG.

NEZ001>004-019>022-054>056-302200-
NEBRASKA PANHANDLE

CITY           SKY/WX    TMP DP  RH WIND       PRES   REMARKS
SCOTTSBLUFF    CLOUDY    43  29  57 NW6       30.12F
ALLIANCE       CLOUDY    48  25  40 N3        30.11F
CHADRON        PTSUNNY   50  28  42 W5        30.13F
KIMBALL        CLOUDY    45  28  51 N9        30.08F
SIDNEY         CLOUDY    45  27  49 CALM      30.11F
$$

NEZ057>060-069>072-079>082-302200-
SOUTHWEST NEBRASKA

CITY           SKY/WX    TMP DP  RH WIND       PRES   REMARKS
NORTH PLATTE   CLOUDY    48  26  42 S15       30.18F
IMPERIAL       CLOUDY    52  32  46 S20G28    30.14F
LEXINGTON      CLOUDY    46  26  45 S18       30.24S
MCCOOK         CLOUDY    48  27  44 S12       30.21F
OGALLALA       CLOUDY    51  32  47 S7        30.13F
$$

NEZ005>010-023>029-035>040-094-302200-
NORTH CENTRAL NEBRASKA

CITY           SKY/WX    TMP DP  RH WIND       PRES   REMARKS
VALENTINE      MOSUNNY   53  25  33 SW13      30.13F
AINSWORTH      MOSUNNY   50  22  33 S16       30.14S
BROKEN BOW     CLOUDY    47  27  45 S18G25    30.20F
O`NEILL        PTSUNNY   46  28  49 S17       30.19F
ORD            CLOUDY    45  24  43 S15       30.22F
THEDFORD       CLOUDY    50  28  43 S14       30.15F
$$

NEZ041-046>049-061>064-073>077-083>087-302200-
SOUTH CENTRAL NEBRASKA

CITY           SKY/WX    TMP DP  RH WIND       PRES   REMARKS
GRAND ISLAND   PTSUNNY   45  25  45 S17       30.29F
AURORA         PTSUNNY   45  25  46 S15G23    30.29F
HASTINGS       PTSUNNY   44  23  43 S13       30.29F
HEBRON         PTSUNNY   44  23  44 SW12      30.35F
HOLDREGE       CLOUDY    44  25  48 S18       30.25F
KEARNEY *      CLOUDY    45  25  45 S18       30.27F
YORK           CLOUDY    45  27  49 SW17      30.31F
$$

NEZ011>018-030>034-042>045-302200-
NORTHEAST NEBRASKA

CITY           SKY/WX    TMP DP  RH WIND       PRES   REMARKS
NORFOLK        MOSUNNY   44  27  51 S23       30.26F
ALBION         PTSUNNY   43  26  51 S17       30.27F
BLAIR          MOSUNNY   39  24  55 S16       30.34F WCI  30
COLUMBUS *     CLOUDY    41  27  56 S15       30.32F
FREMONT        PTSUNNY   40  26  55 S10G17    30.34F WCI  34
TEKAMAH        SUNNY     40  25  55 S16       30.35F WCI  31
WAYNE          SUNNY     44  28  53 SW20      30.27F
$$

NEZ050>053-065>068-078-088>093-302200-
SOUTHEAST NEBRASKA

CITY           SKY/WX    TMP DP  RH WIND       PRES   REMARKS
LINCOLN        CLOUDY    41  25  53 S14       30.37F
OMAHA EPPLEY   PTSUNNY   37  23  56 S13       30.38F WCI  29
BEATRICE       PTSUNNY   41  26  54 S12       30.38F
FALLS CITY     PTSUNNY   39  23  52 S9        30.42F WCI  33
NEBRASKA CITY  CLOUDY    38  21  51 S9        30.40F WCI  31
PLATTSMOUTH    CLOUDY    36  22  58 S10       30.38F WCI  28
$$

NEZ044-045-051>053-067-302200-
OMAHA AREA

CITY           SKY/WX    TMP DP  RH WIND       PRES   REMARKS
OMAHA EPPLEY   PTSUNNY   37  23  56 S13       30.38F WCI  29
BLAIR          MOSUNNY   39  24  55 S16       30.34F WCI  30
FREMONT        PTSUNNY   40  26  55 S10G17    30.34F WCI  34
MILLARD        PTSUNNY   37  25  60 S12       30.37F WCI  30
OFFUTT AFB     PTSUNNY   36  23  58 S13       30.38F WCI  28
PLATTSMOUTH    CLOUDY    36  22  58 S10       30.38F WCI  28
WAHOO          FAIR      40  24  52 S13       30.35F WCI  33
$$


USA.gov is the U.S. government's official web portal to all federal, state and local government web resources and services.